Voltar ao catálogo

STARLINK-34324

AtivoComunicaçõesVLEO
NORAD 64207·PAYLOAD·🇺🇸 United States

Lançado May 31, 2025 de Vandenberg Space Force Base

Loading…

Próximas Passagens (próximas 24 horas)

TLE

AtualizadoSource: CelesTrak SupGP

Época: Sep 14, 2026, 13:58 UTC

1 64207C 25117E   26257.58243056 -.00030000  00000+0 -88661-3 0  2573
2 64207  53.1579 241.2195 0001449  89.3793 143.0329 15.34396454    19

Acompanhe STARLINK-34324 em tempo real com AllMySat

Download on the App Store